Find Starlink 33611

NORAD ID: 63279 Int'l Des: 2025-053 Owner: SPXS Country: US Constellation: starlink operational
LEOCIRCULAR

Current View

Loading 3D Globe...

About Starlink 33611

Starlink 33611 (NORAD 63279) is a starlink constellation satellite (v2 mini) launched Mar 15, 2025 by SPXS of US. It operates in LEO, CIRCULAR orbit with a mass of 575.00 kg.

Upcoming Passes

Passes for default location (London). Set your location on the main map for personalized predictions.

Altitude History

Loading altitude history...

Two-Line Element Set

1 63279U 25053Q 26235.73974562 .00016272 00000-0 59925-3 0 9994
2 63279 43.0018 14.7280 0001559 269.0118 91.0556 15.27596041 81896
Epoch: Aug 23, 2026 • Age: 15 hours

Current Status

Altitude 490.9 km
Apogee / Perigee N/A
Velocity 7.62 km/s
Sub-Earth Point -32.14°S, 142.01°W
Launch Date Mar 15, 2025
Age 1.4 years
Type internet

Technical Details

Classification Payload
Mass 575.00 kg
Dry Mass 530.00 kg
Total Mass 575.00 kg
Length 0.30 m
Diameter 4.10 m
Span 29.00 m
Shape Box + pan
Manufacturer SPXS
Bus Type Starlink V2MO
Phase Status In Orbit
Owner/State SPXS/US

Most Searched